Weather History for Shannon, Ireland

Change the Weather History Date:

Thursday, December 5, 2013

  Actual Average Record
Temperature  
Mean Temperature 46 °F -  
Max Temperature 52 °F 48 °F 55 °F (2001)
Min Temperature 41 °F 38 °F 21 °F (2010)
Degree Days  
Heating Degree Days 18    
Moisture  
Dew Point 43 °F    
Average Humidity 81    
Maximum Humidity 94    
Minimum Humidity 57    
Precipitation  
Precipitation 0.02 in 0.13 in - ()
Sea Level Pressure  
Sea Level Pressure 30.36 in    
Wind  
Wind Speed 20 mph ()    
Max Wind Speed 31 mph    
Max Gust Speed 46 mph    
Visibility 6.4 miles    
Events Rain    
Averages and records for this station are not official NWS values.
T = Trace of Precipitation, MM = Missing Value Source: Averaged Metar Reports

Daily Weather History Graph

Daily Weather History Graph

Search for Another Location

Airport:

Trip Planner

Search our weather history database for the weather conditions in past years. The results will help you decide how hot, cold, wet, or windy it might be!

Date:

Astronomy

Dec. 05, 2013 Rise Set
Actual Time 8:30 AM GMT 4:22 PM GMT
Civil Twilight 7:49 AM GMT 5:03 PM GMT
Nautical Twilight 7:05 AM GMT 5:47 PM GMT
Astronomical Twilight 6:23 AM GMT 6:28 PM GMT
Moon 10:29 AM GMT (12/5) 7:38 PM GMT (12/5)
Length of Visible Light 9h 13m
Length of Day
7h 51m
Waxing Crescent, 9% of the Moon is Illuminated
Dec 5
Waxing Crescent
Dec 9
First Quarter
Dec 17
Full
Dec 25
Last Quarter
Jan 1
New

Hourly Weather History & Observations

Time (GMT) Temp. Windchill Dew Point Humidity Pressure Visibility Wind Dir Wind Speed Gust Speed Precip Events Conditions
12:00 AM 47 °F - 37 °F 57% 30.51 in 16 mi WSW 17.9 mph - -   Mostly Cloudy
12:00 AM 48.2 °F - 37.4 °F 66% 30.48 in 6.2 mi WSW 17.3 mph - N/A   Mostly Cloudy
12:30 AM 48.2 °F - 37.4 °F 66% 30.48 in 6.2 mi WSW 17.3 mph - N/A   Mostly Cloudy
1:00 AM 46.4 °F 39.8 °F 39.2 °F 76% 30.45 in 6.2 mi WSW 16.1 mph - N/A   Mostly Cloudy
1:30 AM 48.2 °F - 37.4 °F 66% 30.45 in 6.2 mi WSW 24.2 mph - N/A   Mostly Cloudy
2:00 AM 48.2 °F - 39.2 °F 71% 30.42 in 6.2 mi SW 18.4 mph - N/A   Mostly Cloudy
2:30 AM 48.2 °F - 39.2 °F 71% 30.42 in 6.2 mi WSW 25.3 mph - N/A   Mostly Cloudy
3:00 AM 48.2 °F - 39.2 °F 71% 30.42 in 6.2 mi WSW 24.2 mph - N/A   Mostly Cloudy
3:30 AM 48.2 °F - 39.2 °F 71% 30.39 in 6.2 mi WSW 25.3 mph 38.0 mph N/A   Mostly Cloudy
4:00 AM 48.2 °F - 39.2 °F 71% 30.36 in 6.2 mi WSW 31.1 mph 43.7 mph N/A   Mostly Cloudy
4:30 AM 48.2 °F - 39.2 °F 71% 30.36 in 6.2 mi WSW 29.9 mph - N/A   Mostly Cloudy
5:00 AM 48.2 °F - 41.0 °F 76% 30.36 in 6.2 mi WSW 26.5 mph 38.0 mph N/A   Mostly Cloudy
5:30 AM 48.2 °F - 41.0 °F 76% 30.33 in 6.2 mi WSW 27.6 mph - N/A   Mostly Cloudy
6:00 AM 49 °F - 40 °F 64% 30.34 in 16 mi WSW 31.3 mph - -   Overcast
6:00 AM 48.2 °F - 41.0 °F 76% 30.33 in 6.2 mi WSW 31.1 mph - N/A   Mostly Cloudy
6:30 AM 50.0 °F - 41.0 °F 71% 30.33 in 6.2 mi WSW 29.9 mph 42.6 mph N/A   Mostly Cloudy
7:00 AM 50.0 °F - 41.0 °F 71% 30.30 in 6.2 mi WSW 28.8 mph - N/A   Mostly Cloudy
7:30 AM 50.0 °F - 42.8 °F 76% 30.30 in 6.2 mi WSW 29.9 mph - N/A   Mostly Cloudy
8:00 AM 50.0 °F - 42.8 °F 76% 30.30 in 6.2 mi West 29.9 mph 46.0 mph N/A   Mostly Cloudy
8:30 AM 50.0 °F - 42.8 °F 76% 30.30 in 6.2 mi West 28.8 mph 41.4 mph N/A   Overcast
9:00 AM 50.0 °F - 42.8 °F 76% 30.30 in 6.2 mi West 28.8 mph 40.3 mph N/A   Overcast
9:30 AM 50.0 °F - 44.6 °F 82% 30.30 in 5.6 mi West 28.8 mph - N/A   Light Drizzle
10:00 AM 51.8 °F - 44.6 °F 76% 30.30 in 5.6 mi West 26.5 mph 41.4 mph N/A   Overcast
10:30 AM 50.0 °F - 46.4 °F 87% 30.30 in 2.5 mi West 26.5 mph - N/A   Light Drizzle
11:00 AM 50.0 °F - 46.4 °F 87% 30.30 in 2.5 mi West 27.6 mph - N/A Rain Light Rain
11:30 AM 50.0 °F - 48.2 °F 94% 30.30 in 5.6 mi West 27.6 mph - N/A   Light Drizzle
12:00 PM 52 °F - 47 °F 79% 30.30 in 9 mi West 29.1 mph - - Rain Light Drizzle
12:00 PM 51.8 °F - 48.2 °F 88% 30.30 in 6.2 mi West 28.8 mph - N/A   Mostly Cloudy
12:30 PM 51.8 °F - 48.2 °F 88% 30.27 in 5.0 mi West 28.8 mph - N/A   Light Drizzle
1:00 PM 50.0 °F - 48.2 °F 94% 30.30 in 3.1 mi WNW 21.9 mph - N/A   Light Drizzle
1:30 PM 48.2 °F - 46.4 °F 93% 30.30 in 4.3 mi WNW 19.6 mph - N/A   Light Drizzle
2:00 PM 50.0 °F - 46.4 °F 87% 30.30 in 5.6 mi WNW 17.3 mph - N/A   Light Drizzle
2:30 PM 50.0 °F - 46.4 °F 87% 30.30 in 5.6 mi WNW 18.4 mph - N/A   Light Drizzle
3:00 PM 48.2 °F - 44.6 °F 87% 30.30 in 6.2 mi West 18.4 mph - N/A   Mostly Cloudy
3:30 PM 50.0 °F - 44.6 °F 82% 30.30 in 6.2 mi West 20.7 mph - N/A   Mostly Cloudy
4:00 PM 50.0 °F - 44.6 °F 82% 30.33 in 6.2 mi West 20.7 mph - N/A   Mostly Cloudy
4:30 PM 50.0 °F - 44.6 °F 82% 30.33 in 5.6 mi West 21.9 mph - N/A Rain Light Rain
5:00 PM 48.2 °F - 44.6 °F 87% 30.33 in 6.2 mi West 21.9 mph - N/A   Mostly Cloudy
5:30 PM 48.2 °F - 44.6 °F 87% 30.33 in 6.2 mi West 17.3 mph - N/A   Partly Cloudy
6:00 PM 48 °F - 44 °F 81% 30.36 in 12 mi West 17.9 mph - -   Partly Cloudy
6:00 PM 48.2 °F - 44.6 °F 87% 30.33 in 6.2 mi West 17.3 mph - N/A   Scattered Clouds
6:30 PM 50.0 °F - 44.6 °F 82% 30.36 in 6.2 mi WNW 18.4 mph - N/A   Mostly Cloudy
7:00 PM 46.4 °F 39.5 °F 44.6 °F 93% 30.39 in 5.0 mi NW 17.3 mph - N/A   Light Drizzle
7:30 PM 46.4 °F 40.7 °F 42.8 °F 87% 30.39 in 6.2 mi WNW 12.7 mph - N/A   Mostly Cloudy
8:00 PM 46.4 °F 41.1 °F 44.6 °F 93% 30.39 in 6.2 mi WNW 11.5 mph - N/A   Light Drizzle
8:30 PM 46.4 °F 41.1 °F 44.6 °F 93% 30.39 in 6.2 mi WNW 11.5 mph - N/A   Light Drizzle
9:00 PM 44.6 °F 39.2 °F 42.8 °F 93% 30.39 in 6.2 mi WNW 10.4 mph - N/A   Partly Cloudy
9:30 PM 44.6 °F 40.2 °F 42.8 °F 93% 30.39 in 6.2 mi WNW 8.1 mph - N/A   Scattered Clouds
10:00 PM 44.6 °F 40.7 °F 42.8 °F 93% 30.42 in 6.2 mi WNW 6.9 mph - N/A Rain Light Rain Showers
10:30 PM 44.6 °F 40.2 °F 42.8 °F 93% 30.42 in 6.2 mi WNW 8.1 mph - N/A   Mostly Cloudy
11:00 PM 44.6 °F 39.7 °F 42.8 °F 93% 30.42 in 6.2 mi WNW 9.2 mph - N/A   Mostly Cloudy
11:30 PM 44.6 °F 40.7 °F 42.8 °F 93% 30.42 in 6.2 mi NW 6.9 mph - N/A   Mostly Cloudy